FW0794 Weather Reports


time (UTC)temp
C
wind
direction
speed
KPH
gust
KPH
rain 1hr
cm
rain 24hr
cm
rain mn
cm
humidity
%
barometer
mb
20260507200029 21 265 0.0 0.0 0.00 0.00 0.00 68 974.8
20260507194512 20 211 0.0 0.0 0.00 0.00 0.00 71 974.8
20260507193009 19 278 0.0 0.0 0.00 0.00 0.00 73 974.8
20260507191505 18 231 0.0 0.0 0.00 0.00 0.00 77 974.8
20260507190104 17 206 0.0 0.0 0.00 0.00 0.00 81 974.8
20260507184555 16 173 0.0 0.0 0.00 0.00 0.00 83 974.8
20260507183058 15 227 0.0 0.0 0.00 0.00 0.00 85 974.8
20260507181550 14 246 0.0 0.0 0.00 0.00 0.00 87 974.8
20260507180050 14 180 0.0 0.0 0.00 0.00 0.00 88 974.8
20260507174544 13 242 0.0 0.0 0.00 0.00 0.00 88 974.8
20260507173051 13 223 0.0 0.0 0.00 0.00 0.00 89 974.8
20260507171544 13 216 0.0 0.0 0.00 0.00 0.00 91 974.8
20260507170040 13 232 0.0 0.0 0.00 0.00 0.00 91 974.8
20260507164538 13 192 0.0 0.0 0.00 0.00 0.00 91 974.8
20260507163034 13 178 0.0 0.0 0.00 0.00 0.00 91 974.8
20260507161531 13 171 0.0 0.0 0.00 0.00 0.00 91 974.8
20260507160026 13 171 0.0 0.0 0.00 0.00 0.00 91 974.8
20260507154524 12 171 0.0 0.0 0.00 0.00 0.00 91 974.8
20260507153022 12 170 0.0 0.0 0.00 0.00 0.00 91 974.8
20260507151521 12 231 0.0 0.0 0.00 0.00 0.00 91 974.8
20260507150018 12 231 0.0 0.0 0.00 0.00 0.00 91 974.8
20260507144517 12 231 0.0 0.0 0.00 0.00 0.00 91 974.8
20260507143015 12 231 0.0 0.0 0.00 0.00 0.00 91 974.8
20260507141513 12 231 0.0 0.0 0.00 0.00 0.00 91 974.8
20260507140011 12 231 0.0 0.0 0.00 0.00 0.00 91 974.8
20260507134514 12 231 0.0 0.0 0.00 0.00 0.00 91 974.8
20260507133010 12 231 0.0 0.0 0.00 0.00 0.00 91 974.8
20260507131509 12 231 0.0 0.0 0.00 0.00 0.00 90 974.8
20260507130008 11 231 0.0 0.0 0.00 0.00 0.00 90 974.8
20260507124506 11 231 0.0 0.0 0.00 0.00 0.00 90 974.8
20260507123006 11 231 0.0 0.0 0.00 0.00 0.00 90 974.8
20260507121506 11 231 0.0 0.0 0.00 0.00 0.00 90 974.8
20260507120004 12 231 0.0 0.0 0.00 0.00 0.00 90 974.8
20260507114502 12 231 0.0 0.0 0.00 0.00 0.00 90 974.8
20260507113100 12 231 0.0 0.0 0.00 0.00 0.00 91 974.8
20260507111558 12 231 0.0 0.0 0.00 0.00 0.00 91 974.8
20260507110057 12 231 0.0 0.0 0.00 0.00 0.00 91 974.8
20260507104556 12 231 0.0 0.0 0.00 0.00 0.00 90 974.8
20260507103056 12 229 0.0 0.0 0.00 0.00 0.00 90 974.8
20260507101554 13 256 0.0 0.0 0.00 0.00 0.00 90 974.8
20260507100056 13 242 0.0 0.0 0.00 0.00 0.00 90 974.8
20260507094554 13 263 0.0 0.0 0.00 0.00 0.00 90 974.8
20260507093050 13 262 0.0 0.0 0.00 0.00 0.00 90 974.8
20260507091550 13 202 0.0 0.0 0.00 0.00 0.00 89 974.8
20260507090049 13 267 0.0 0.0 0.00 0.00 0.00 89 974.8
20260507084552 13 268 0.0 0.0 0.00 0.00 0.00 88 974.8
20260507083049 13 110 0.0 0.0 0.00 0.00 0.00 89 974.8
20260507081544 13 103 0.0 0.0 0.00 0.00 0.00 89 974.8
20260507074546 13 103 0.0 0.0 0.00 0.00 0.00 89 974.8
20260507073047 13 103 0.0 0.0 0.00 0.00 0.00 89 974.8
20260507071557 13 103 0.0 0.0 0.00 0.00 0.00 89 974.8
20260507070040 13 95 0.0 0.0 0.00 0.00 0.00 89 974.8
20260507064544 13 97 0.0 0.0 0.00 0.00 0.00 89 974.8
20260507063041 13 93 0.0 0.0 0.00 0.00 0.00 89 974.8
20260507061538 13 96 0.0 0.0 0.00 0.00 0.00 88 974.8
20260507060037 13 99 0.0 0.0 0.00 0.00 0.00 88 974.8
20260507054541 13 105 0.0 0.0 0.00 0.00 0.00 88 974.8
20260507053042 13 61 0.0 0.0 0.00 0.00 0.00 88 974.8
20260507051537 14 86 0.0 0.0 0.00 0.00 0.00 87 974.8
20260507050035 14 100 0.0 0.0 0.00 0.00 0.00 86 974.8
20260507044536 15 123 0.0 0.0 0.00 0.00 0.00 86 974.8
20260507043037 15 112 0.0 0.0 0.00 0.00 0.00 85 974.8
20260507041534 15 110 0.0 0.0 0.00 0.00 0.00 84 974.8
20260507040035 16 108 0.0 0.0 0.00 0.00 0.00 83 974.8
20260507034534 16 96 0.0 0.0 0.00 0.00 0.00 81 974.8
20260507033037 17 96 0.0 0.0 0.00 0.00 0.00 77 974.8
20260507031533 18 117 0.0 0.0 0.00 0.00 0.00 75 974.8
20260507030033 19 105 0.0 0.0 0.00 0.00 0.00 72 974.8
20260507024534 19 44 0.0 0.0 0.00 0.00 0.00 73 974.8
20260507023031 19 262 0.0 0.0 0.00 0.00 0.00 71 974.8
20260507021531 20 238 0.0 0.0 0.00 0.00 0.00 69 974.8
20260507020033 20 256 0.0 0.0 0.00 0.00 0.00 67 974.8
20260507014529 22 227 0.0 0.0 0.00 0.00 0.00 64 974.8
20260507013035 22 273 0.0 0.0 0.00 0.00 0.00 65 974.8
20260507011536 22 244 0.0 0.0 0.00 0.00 0.00 65 974.8
20260507010028 22 257 0.0 0.0 0.00 0.00 0.00 63 974.8
20260507004525 22 246 0.0 0.0 0.00 0.00 0.00 64 974.8
20260507003024 22 259 0.0 0.0 0.00 0.00 0.00 63 974.8
20260507001523 22 237 0.0 0.0 0.00 0.00 0.00 63 974.8
20260507000023 22 259 0.0 0.0 0.00 0.00 0.00 63 974.8
20260506234528 22 229 0.0 0.0 0.00 0.00 0.00 63 974.8
20260506233021 22 270 0.0 0.0 0.00 0.00 0.00 62 974.8
20260506231519 22 263 0.0 0.0 0.00 0.00 0.00 62 974.8
20260506230015 22 227 0.0 0.0 0.00 0.00 0.00 63 974.8
20260506224524 22 304 0.0 0.0 0.00 0.00 0.00 63 974.8
20260506223015 22 186 0.0 0.0 0.00 0.00 0.00 63 974.8
20260506221512 22 297 0.0 0.0 0.00 0.00 0.00 63 974.8
20260506220012 22 285 0.0 0.0 0.00 0.00 0.00 61 974.8
20260506214511 22 294 0.0 0.0 0.00 0.00 0.00 61 974.8
20260506213019 22 249 0.0 0.0 0.00 0.00 0.00 61 974.8
20260506211515 22 260 0.0 0.0 0.00 0.00 0.00 61 974.8
20260506210007 22 259 0.0 0.0 0.00 0.00 0.00 62 974.8
20260506204505 21 208 0.0 0.0 0.00 0.00 0.00 63 974.8
20260506203001 21 290 0.0 0.0 0.00 0.00 0.00 64 974.8
20260506201559 21 261 0.0 0.0 0.00 0.00 0.00 64 974.8